When you browse on this site, cookies collect data to enhance your experience and personalize the content and advertising you see.
Visit our Privacy Policy to learn more. By continuing to use the site, you agree to this use of cookies and data.
  • In Hungary
  • List of Countries
  • For 7 days
  • Water Temperature
  • Weather Map
  • News
  • Weather Widgets
  • user-avatar
    Login

    Hourly Weather Gorlowko

    Today, 5 April, Sunday

    Time Temperature Precipitation Wind Pressure Humidity
    00:00 -1°C° 0 mm 2 mps 759 mmHg 82%
    01:00 +1°C° 0 mm 1 mps 760 mmHg 84%
    02:00 +1°C° 0 mm 1 mps 760 mmHg 84%
    03:00 +1°C° 0 mm 1 mps 760 mmHg 84%
    04:00 +1°C° 0 mm 1 mps 761 mmHg 84%
    05:00 +2°C° 0 mm 1 mps 761 mmHg 79%
    06:00 +3°C° 0 mm 1 mps 762 mmHg 73%
    07:00 +4°C° 0 mm 1 mps 762 mmHg 67%
    08:00 +6°C° 0 mm 1 mps 762 mmHg 60%
    09:00 +7°C° 0 mm 2 mps 763 mmHg 52%
    10:00 +8°C° 0 mm 2 mps 763 mmHg 44%
    11:00 +9°C° 0 mm 2 mps 763 mmHg 42%
    12:00 +10°C° 0 mm 2 mps 763 mmHg 40%
    13:00 +12°C° 0 mm 2 mps 763 mmHg 38%
    14:00 +12°C° 0 mm 2 mps 763 mmHg 38%
    15:00 +12°C° 0 mm 1 mps 762 mmHg 39%
    16:00 +12°C° 0 mm 1 mps 762 mmHg 39%
    17:00 +10°C° 0 mm 1 mps 762 mmHg 45%
    18:00 +9°C° 0 mm 1 mps 762 mmHg 51%
    19:00 +7°C° 0 mm 1 mps 762 mmHg 56%
    20:00 +6°C° 0 mm 1 mps 762 mmHg 58%
    21:00 +6°C° 0 mm 1 mps 762 mmHg 60%
    22:00 +4°C° 0 mm 2 mps 763 mmHg 61%
    23:00 +4°C° 0 mm 2 mps 763 mmHg 62%

    Tomorrow, 6 April, Monday

    Time Temperature Precipitation Wind Pressure Humidity
    00:00 +4°C° 0 mm 2 mps 763 mmHg 63%
    01:00 +3°C° 0 mm 2 mps 763 mmHg 64%
    02:00 +3°C° 0 mm 2 mps 763 mmHg 65%
    03:00 +3°C° 0 mm 2 mps 762 mmHg 66%
    04:00 +2°C° 0 mm 2 mps 762 mmHg 67%
    05:00 +3°C° 0 mm 2 mps 763 mmHg 64%
    06:00 +3°C° 0 mm 3 mps 763 mmHg 62%
    07:00 +4°C° 0 mm 3 mps 763 mmHg 59%
    08:00 +7°C° 0 mm 3 mps 763 mmHg 54%
    09:00 +9°C° 0 mm 3 mps 763 mmHg 49%
    10:00 +11°C° 0 mm 4 mps 763 mmHg 44%
    11:00 +12°C° 0 mm 4 mps 763 mmHg 42%
    12:00 +13°C° 0 mm 4 mps 762 mmHg 41%
    13:00 +13°C° 0 mm 4 mps 762 mmHg 39%
    14:00 +13°C° 0 mm 4 mps 762 mmHg 40%
    15:00 +13°C° 0 mm 4 mps 761 mmHg 41%
    16:00 +13°C° 0 mm 4 mps 761 mmHg 42%
    17:00 +12°C° 0 mm 4 mps 761 mmHg 48%
    18:00 +10°C° 0 mm 3 mps 761 mmHg 54%
    19:00 +8°C° 0 mm 3 mps 761 mmHg 60%
    20:00 +8°C° 0 mm 3 mps 761 mmHg 62%
    21:00 +7°C° 0 mm 3 mps 761 mmHg 63%
    22:00 +6°C° 0 mm 4 mps 761 mmHg 64%
    23:00 +7°C° 0 mm 3 mps 761 mmHg 65%

    Day after tomorrow, 7 April, Tuesday

    Time Temperature Precipitation Wind Pressure Humidity
    00:00 +5°C° 0 mm 3 mps 761 mmHg 66%
    01:00 +5°C° 0 mm 3 mps 761 mmHg 67%
    02:00 +4°C° 0 mm 3 mps 761 mmHg 68%
    03:00 +4°C° 0 mm 3 mps 761 mmHg 70%
    04:00 +4°C° 0 mm 4 mps 761 mmHg 71%
    05:00 +5°C° 0 mm 4 mps 761 mmHg 69%
    06:00 +6°C° 0 mm 4 mps 761 mmHg 67%
    07:00 +6°C° 0 mm 4 mps 761 mmHg 65%
    08:00 +8°C° 0 mm 4 mps 761 mmHg 60%
    09:00 +10°C° 0 mm 5 mps 760 mmHg 55%
    10:00 +13°C° 0 mm 5 mps 760 mmHg 49%
    11:00 +15°C° 0 mm 5 mps 760 mmHg 46%
    12:00 +16°C° 0 mm 6 mps 760 mmHg 43%
    13:00 +17°C° 0 mm 6 mps 760 mmHg 39%
    14:00 +16°C° 0 mm 6 mps 760 mmHg 40%
    15:00 +16°C° 0 mm 5 mps 759 mmHg 42%
    16:00 +17°C° 0 mm 4 mps 759 mmHg 43%
    17:00 +14°C° 0 mm 4 mps 759 mmHg 51%
    18:00 +13°C° 0 mm 3 mps 759 mmHg 58%
    19:00 +12°C° 0 mm 2 mps 759 mmHg 66%
    20:00 +10°C° 0 mm 2 mps 759 mmHg 69%
    21:00 +10°C° 0 mm 2 mps 759 mmHg 73%
    22:00 +9°C° 0 mm 2 mps 759 mmHg 76%
    23:00 +8°C° 0 mm 2 mps 759 mmHg 81%

    8 April, Wednesday

    Time Temperature Precipitation Wind Pressure Humidity
    00:00 +8°C° 0 mm 2 mps 759 mmHg 87%
    01:00 +7°C° 0 mm 2 mps 759 mmHg 92%
    02:00 +6°C° 0 mm 2 mps 759 mmHg 93%
    03:00 +7°C° 0 mm 1 mps 759 mmHg 94%
    04:00 +7°C° 0 mm 1 mps 759 mmHg 95%
    05:00 +8°C° 0 mm 1 mps 759 mmHg 91%
    06:00 +9°C° 0 mm 1 mps 759 mmHg 86%
    07:00 +10°C° 0 mm 1 mps 759 mmHg 82%
    08:00 +11°C° 0 mm 1 mps 759 mmHg 72%
    09:00 +13°C° 0 mm 1 mps 759 mmHg 63%
    10:00 +15°C° 0 mm 1 mps 759 mmHg 53%
    11:00 +16°C° 0 mm 1 mps 759 mmHg 50%
    12:00 +17°C° 0 mm 2 mps 758 mmHg 46%
    13:00 +17°C° 0 mm 2 mps 758 mmHg 43%
    14:00 +17°C° 0 mm 2 mps 757 mmHg 44%
    15:00 +17°C° 0 mm 2 mps 757 mmHg 44%
    16:00 +17°C° 0 mm 2 mps 756 mmHg 45%
    17:00 +15°C° 0 mm 2 mps 756 mmHg 53%
    18:00 +13°C° 0 mm 2 mps 756 mmHg 60%
    19:00 +10°C° 0 mm 2 mps 756 mmHg 67%
    20:00 +11°C° 0 mm 1 mps 755 mmHg 69%
    21:00 +10°C° 0 mm 1 mps 755 mmHg 72%
    22:00 +8°C° 0 mm 0 mps 755 mmHg 75%
    23:00 +9°C° 0 mm 1 mps 754 mmHg 75%

    9 April, Thursday

    Time Temperature Precipitation Wind Pressure Humidity
    00:00 +9°C° 0 mm 1 mps 754 mmHg 75%
    01:00 +9°C° 0 mm 1 mps 753 mmHg 75%
    02:00 +8°C° 0 mm 2 mps 753 mmHg 77%
    03:00 +8°C° 0 mm 2 mps 752 mmHg 79%
    04:00 +8°C° 0 mm 2 mps 752 mmHg 80%
    05:00 +8°C° 0 mm 3 mps 752 mmHg 75%
    06:00 +8°C° 0 mm 3 mps 752 mmHg 70%
    07:00 +8°C° 0 mm 4 mps 752 mmHg 65%
    08:00 +10°C° 0 mm 4 mps 751 mmHg 61%
    09:00 +10°C° 0 mm 5 mps 751 mmHg 57%
    10:00 +11°C° 0 mm 6 mps 751 mmHg 53%
    11:00 +11°C° 0 mm 6 mps 751 mmHg 56%
    12:00 +11°C° 0 mm 6 mps 751 mmHg 58%
    13:00 +11°C° 0 mm 7 mps 751 mmHg 61%
    14:00 +10°C° 0 mm 7 mps 751 mmHg 57%
    15:00 +9°C° 0 mm 7 mps 751 mmHg 53%
    16:00 +9°C° 0 mm 7 mps 751 mmHg 49%
    17:00 +7°C° 0 mm 6 mps 751 mmHg 57%
    18:00 +5°C° 0 mm 5 mps 751 mmHg 64%
    19:00 +4°C° 0 mm 4 mps 751 mmHg 71%
    20:00 +3°C° 0 mm 4 mps 751 mmHg 73%
    21:00 +1°C° 0 mm 4 mps 752 mmHg 76%
    22:00 +1°C° 0 mm 4 mps 752 mmHg 78%
    23:00 0°C° 0 mm 4 mps 752 mmHg 82%

    10 April, Friday

    Time Temperature Precipitation Wind Pressure Humidity
    00:00 +1°C° 0 mm 3 mps 752 mmHg 85%
    01:00 +1°C° 0 mm 3 mps 752 mmHg 89%
    02:00 0°C° 0 mm 3 mps 753 mmHg 91%
    03:00 +1°C° 0 mm 2 mps 753 mmHg 94%
    04:00 +1°C° 0 mm 2 mps 753 mmHg 96%
    05:00 +2°C° 0 mm 2 mps 753 mmHg 91%
    06:00 +3°C° 0 mm 2 mps 754 mmHg 87%
    07:00 +4°C° 0 mm 2 mps 754 mmHg 83%
    08:00 +5°C° 0 mm 3 mps 755 mmHg 71%
    09:00 +7°C° 0 mm 3 mps 755 mmHg 59%
    10:00 +8°C° 0 mm 4 mps 755 mmHg 48%
    11:00 +8°C° 0 mm 4 mps 755 mmHg 46%
    12:00 +8°C° 0 mm 5 mps 755 mmHg 45%
    13:00 +9°C° 0 mm 5 mps 755 mmHg 43%
    14:00 +8°C° 0 mm 5 mps 755 mmHg 43%
    15:00 +8°C° 0 mm 5 mps 755 mmHg 43%
    16:00 +7°C° 0 mm 5 mps 755 mmHg 43%
    17:00 +6°C° 0 mm 4 mps 755 mmHg 49%
    18:00 +4°C° 0 mm 4 mps 755 mmHg 54%
    19:00 +2°C° 0 mm 3 mps 755 mmHg 59%
    20:00 +3°C° 0 mm 2 mps 755 mmHg 61%
    21:00 +2°C° 0 mm 2 mps 755 mmHg 64%
    22:00 +1°C° 0 mm 2 mps 755 mmHg 66%
    23:00 +2°C° 0 mm 1 mps 755 mmHg 65%
    Show more